User: anonymous   Login
Location: Keeble Observatory
(37.7625°N, 77.4755°W)
Time: 23:03:40
(UTC-04:00)
Language:

Cosmos 1484 Rocket - Orbit

View from above orbital plane
View from above orbital plane
View from above satellite
View from above satellite

Ground track
Ground track

The orbit data is extracted from the following two-line orbital elements,

1 14208U 83075B   17293.57559211 +.00000528 +00000-0 +35176-4 0  9996
2 14208 097.3413 299.0054 0040824 059.8250 300.7014 15.10513535866138
Epoch (UTC): 20 October 2017 13:48:51
Eccentricity: 0.0040824
inclination: 97.3413°
perigee height: 506 km
apogee height: 563 km
right ascension of ascending node: 299.0054°
argument of perigee: 59.8250°
revolutions per day: 15.10513535
mean anomaly at epoch: 300.7014°
orbit number at epoch: 86613

The dashed part of the orbit path shows where the satellite is in the earth's shadow,  

DLR